Location: Grieser Field
(39.7333°N, 81.7975°W)
Time: 23:59:51
(UTC-04:00)

MOS 1-B - Visible Passes

Search period start: 27 March 2015 00:00
Search period end: 06 April 2015 00:00
Orbit: 906 x 914 km, 99.2° (Epoch: 26 March)

Date Brightness Start Highest point End Pass type
(mag) Time Alt. Az. Time Alt. Az. Time Alt. Az.
27 Mar 6.1 03:24:21 10° NNE 03:27:18 27° NE 03:27:18 27° NE visible
27 Mar 5.5 05:06:34 10° N 05:10:34 28° NW 05:10:34 28° NW visible
28 Mar 5.9 03:29:49 10° NNE 03:33:03 31° NE 03:33:03 31° NE visible
28 Mar 5.5 05:12:14 10° N 05:16:19 26° NW 05:16:19 26° NW visible
29 Mar 5.7 03:35:17 10° NNE 03:38:47 34° NE 03:38:47 34° NE visible
29 Mar 5.6 05:17:54 10° NNW 05:22:03 24° WNW 05:22:03 24° WNW visible
30 Mar 5.5 03:40:46 10° NNE 03:44:32 39° NE 03:44:32 39° NE visible
30 Mar 5.7 05:23:37 10° NNW 05:27:47 22° WNW 05:27:47 22° WNW visible
31 Mar 5.3 03:46:15 10° NNE 03:50:16 44° NE 03:50:16 44° NE visible
31 Mar 5.8 05:29:20 10° NNW 05:33:25 20° WNW 05:33:32 20° WNW visible
01 Apr 5.1 03:51:45 10° NNE 03:56:00 49° NE 03:56:00 49° NE visible
01 Apr 5.9 05:35:05 10° NNW 05:38:53 18° WNW 05:39:17 17° WNW visible
02 Apr 4.9 03:57:16 10° NNE 04:01:44 55° NNE 04:01:44 55° NNE visible
02 Apr 6.0 05:40:53 10° NNW 05:44:21 16° WNW 05:45:00 16° WNW visible
03 Apr 4.7 04:02:47 10° NNE 04:07:29 60° NNE 04:07:29 60° NNE visible
03 Apr 6.0 05:46:43 10° NNW 05:49:48 14° WNW 05:50:45 14° WNW visible
04 Apr 7.0 02:29:28 10° ENE 02:29:57 11° ENE 02:29:57 11° ENE visible
04 Apr 4.5 04:08:19 10° NNE 04:13:13 65° N 04:13:13 65° N visible
04 Apr 6.1 05:52:39 10° NNW 05:55:16 13° WNW 05:56:29 12° WNW visible
05 Apr 6.9 02:34:23 10° ENE 02:35:41 13° ENE 02:35:41 13° ENE visible
05 Apr 4.4 04:13:51 10° N 04:18:57 68° NNW 04:18:57 68° NNW visible
05 Apr 6.2 05:58:44 10° NW 06:00:43 11° WNW 06:02:13 10° WNW visible
